Simultaneous Nadir Overpasses (SNOs) Predictions

Prediction of SNOs between GOES-16 and METOP-B Satellite Orbit:

Table of predicted SNOs for the next 14.0 days since TLE Epoch: 1/15/2022
Index Date Time (GOES-16) GOES-16 Lat,Lon METOP-B Lat,Lon Distance(km) Time Diff (sec)
1 01/16/2022 14:41:20 -0.01, -75.19 0.46, -77.27 236.58 80
2 01/17/2022 14:18:01 -0.02, -75.19 -0.68, -72.28 332.49 80
3 01/19/2022 02:39:40 0.01, -75.17 -0.37, -76.87 193.31 80
4 01/20/2022 02:16:20 0.01, -75.17 0.72, -71.87 376.11 80
5 01/21/2022 14:37:50 0.01, -75.20 0.30, -76.42 140.15 80
6 01/22/2022 14:14:31 0.00, -75.21 -0.84, -71.43 429.78 80
7 01/24/2022 02:36:10 -0.01, -75.19 -0.21, -76.02 94.87 80
8 01/25/2022 02:12:50 -0.01, -75.20 0.94, -71.04 475.06 80
9 01/26/2022 14:34:21 0.01, -75.23 0.08, -75.59 40.84 80
